Weather History for Wildwood, NJ

Change the Weather History Date:

Saturday, January 19, 2013

  Actual Average Record
Temperature  
Mean Temperature 42 °F -  
Max Temperature 53 °F 36 °F 53 °F (2013)
Min Temperature 30 °F 25 °F 10 °F (1997)
Degree Days  
Heating Degree Days 24    
Moisture  
Dew Point 25 °F    
Average Humidity 52    
Maximum Humidity 65    
Minimum Humidity 33    
Precipitation  
Precipitation 0.00 in - - ()
Sea Level Pressure  
Sea Level Pressure 30.27 in    
Wind  
Wind Speed 12 mph (SSW)    
Max Wind Speed 20 mph    
Max Gust Speed 28 mph    
Visibility 10 miles    
Events      
Averages and records for this station are not official NWS values.
T = Trace of Precipitation, MM = Missing Value Source: NWS Daily Summary

Daily Weather History Graph

Daily Weather History Graph

Search for Another Location

Airport:

Trip Planner

Search our weather history database for the weather conditions in past years. The results will help you decide how hot, cold, wet, or windy it might be!

Date:

Astronomy

Jan. 19, 2013 Rise Set
Actual Time 7:15 AM EST 5:06 PM EST
Civil Twilight 6:46 AM EST 5:35 PM EST
Nautical Twilight 6:13 AM EST 6:07 PM EST
Astronomical Twilight 5:41 AM EST 6:39 PM EST
Moon 11:30 AM EST (1/19) 12:47 AM EST (1/19)
Length of Visible Light 10h 49m
Length of Day
9h 51m
First Quarter, 57% of the Moon is Illuminated
Jan 19
First Quarter
Jan 26
Full
Feb 3
Last Quarter
Feb 10
New
Feb 17
First Quarter

Hourly Weather History & Observations

Time (EST) Temp. Windchill Dew Point Humidity Pressure Visibility Wind Dir Wind Speed Gust Speed Precip Events Conditions
12:15 AM 30.2 °F 23.4 °F 19.4 °F 64% 30.48 in 10.0 mi SSW 6.9 mph - N/A   Clear
12:35 AM 30.2 °F 22.6 °F 19.4 °F 64% 30.47 in 10.0 mi SSW 8.1 mph - N/A   Clear
12:55 AM 30.2 °F 22.6 °F 17.6 °F 60% 30.46 in 10.0 mi SSW 8.1 mph - N/A   Clear
1:15 AM 30.2 °F 22.6 °F 17.6 °F 60% 30.46 in 10.0 mi SSW 8.1 mph - N/A   Clear
1:35 AM 32.0 °F 23.0 °F 19.4 °F 60% 30.45 in 10.0 mi SSW 11.5 mph - N/A   Clear
1:55 AM 33.8 °F 26.4 °F 19.4 °F 56% 30.45 in 10.0 mi SSW 9.2 mph - N/A   Clear
2:15 AM 33.8 °F 25.3 °F 19.4 °F 56% 30.45 in 10.0 mi South 11.5 mph - N/A   Clear
2:35 AM 33.8 °F 25.8 °F 19.4 °F 56% 30.45 in 10.0 mi South 10.4 mph - N/A   Clear
2:55 AM 33.8 °F 25.3 °F 21.2 °F 60% 30.44 in 10.0 mi SSW 11.5 mph - N/A   Clear
3:15 AM 33.8 °F 24.8 °F 21.2 °F 60% 30.44 in 10.0 mi SSW 12.7 mph 17.3 mph N/A   Clear
3:35 AM 33.8 °F 25.3 °F 21.2 °F 60% 30.43 in 10.0 mi South 11.5 mph - N/A   Clear
3:55 AM 33.8 °F 25.3 °F 21.2 °F 60% 30.42 in 10.0 mi SSW 11.5 mph - N/A   Clear
4:15 AM 35.6 °F 27.5 °F 21.2 °F 56% 30.42 in 10.0 mi South 11.5 mph - N/A   Clear
4:35 AM 35.6 °F 28.0 °F 21.2 °F 56% 30.42 in 10.0 mi SSW 10.4 mph - N/A   Clear
4:55 AM 35.6 °F 27.5 °F 21.2 °F 56% 30.41 in 10.0 mi SSW 11.5 mph - N/A   Clear
5:15 AM 35.6 °F 26.6 °F 21.2 °F 56% 30.41 in 10.0 mi SSW 13.8 mph - N/A   Clear
5:35 AM 35.6 °F 27.1 °F 19.4 °F 52% 30.41 in 10.0 mi South 12.7 mph - N/A   Clear
5:55 AM 35.6 °F 25.9 °F 19.4 °F 52% 30.41 in 10.0 mi South 16.1 mph 21.9 mph N/A   Clear
6:15 AM 35.6 °F 26.6 °F 21.2 °F 56% 30.41 in 10.0 mi SSW 13.8 mph 20.7 mph N/A   Clear
6:35 AM 35.6 °F 27.1 °F 23.0 °F 60% 30.40 in 10.0 mi SSW 12.7 mph 20.7 mph N/A   Clear
6:55 AM 35.6 °F 27.1 °F 24.8 °F 65% 30.40 in 10.0 mi SSW 12.7 mph 18.4 mph N/A   Clear
7:15 AM 35.6 °F 26.6 °F 24.8 °F 65% 30.40 in 10.0 mi SSW 13.8 mph 20.7 mph N/A   Clear
7:35 AM 35.6 °F 27.1 °F 24.8 °F 65% 30.39 in 10.0 mi South 12.7 mph - N/A   Clear
7:55 AM 37.4 °F 28.2 °F 24.8 °F 60% 30.39 in 10.0 mi South 16.1 mph 20.7 mph N/A   Clear
8:15 AM 37.4 °F 27.8 °F 24.8 °F 60% 30.39 in 10.0 mi South 17.3 mph 24.2 mph N/A   Clear
8:35 AM 39.2 °F 31.6 °F 24.8 °F 56% 30.39 in 10.0 mi SSW 12.7 mph 21.9 mph N/A   Clear
8:55 AM 39.2 °F 30.8 °F 24.8 °F 56% 30.39 in 10.0 mi SSW 15.0 mph 20.7 mph N/A   Clear
9:15 AM 39.2 °F 30.8 °F 24.8 °F 56% 30.39 in 10.0 mi SSW 15.0 mph 21.9 mph N/A   Clear
9:35 AM 41.0 °F 33.5 °F 24.8 °F 53% 30.39 in 10.0 mi SSW 13.8 mph 19.6 mph N/A   Clear
9:55 AM 42.8 °F 35.8 °F 24.8 °F 49% 30.38 in 10.0 mi SSW 13.8 mph 21.9 mph N/A   Clear
10:15 AM 42.8 °F 34.8 °F 24.8 °F 49% 30.37 in 10.0 mi SSW 17.3 mph 25.3 mph N/A   Clear
10:35 AM 44.6 °F 37.2 °F 24.8 °F 46% 30.36 in 10.0 mi SSW 17.3 mph 20.7 mph N/A   Clear
10:55 AM 44.6 °F 37.2 °F 24.8 °F 46% 30.35 in 10.0 mi SW 17.3 mph 21.9 mph N/A   Clear
11:15 AM 44.6 °F 38.4 °F 26.6 °F 49% 30.34 in 10.0 mi SSW 12.7 mph 17.3 mph N/A   Clear
11:35 AM 44.6 °F 38.1 °F 26.6 °F 49% 30.32 in 10.0 mi SSW 13.8 mph - N/A   Clear
11:55 AM 46.4 °F 41.1 °F 28.4 °F 50% 30.30 in 10.0 mi SW 11.5 mph - N/A   Clear
12:15 PM 48.2 °F - 26.6 °F 43% 30.27 in 10.0 mi SSW 16.1 mph 21.9 mph N/A   Clear
12:35 PM 48.2 °F - 26.6 °F 43% 30.26 in 10.0 mi SSW 17.3 mph 21.9 mph N/A   Clear
12:55 PM 50.0 °F - 26.6 °F 40% 30.24 in 10.0 mi SW 17.3 mph - N/A   Clear
1:15 PM 51.8 °F - 28.4 °F 41% 30.23 in 10.0 mi SW 15.0 mph 19.6 mph N/A   Clear
1:35 PM 51.8 °F - 24.8 °F 35% 30.23 in 10.0 mi SSW 19.6 mph 25.3 mph N/A   Clear
1:55 PM 51.8 °F - 23.0 °F 33% 30.21 in 10.0 mi SSW 16.1 mph 24.2 mph N/A   Clear
2:15 PM 53.6 °F - 24.8 °F 33% 30.21 in 10.0 mi SW 13.8 mph - N/A   Clear
2:35 PM 51.8 °F - 24.8 °F 35% 30.19 in 10.0 mi SW 15.0 mph - N/A   Clear
2:55 PM 53.6 °F - 24.8 °F 33% 30.19 in 10.0 mi SSW 16.1 mph 19.6 mph N/A   Clear
3:15 PM 53.6 °F - 24.8 °F 33% 30.18 in 10.0 mi SSW 15.0 mph 20.7 mph N/A   Clear
3:35 PM 51.8 °F - 26.6 °F 38% 30.17 in 10.0 mi SSW 11.5 mph - N/A   Clear
3:55 PM 51.8 °F - 26.6 °F 38% 30.16 in 10.0 mi South 9.2 mph - N/A   Clear
4:15 PM 50.0 °F - 26.6 °F 40% 30.15 in 10.0 mi SSW 15.0 mph 20.7 mph N/A   Clear
4:35 PM 50.0 °F - 26.6 °F 40% 30.14 in 10.0 mi South 10.4 mph - N/A   Clear
4:55 PM 48.2 °F - 28.4 °F 46% 30.14 in 10.0 mi South 13.8 mph - N/A   Clear
5:15 PM 46.4 °F 40.7 °F 26.6 °F 46% 30.13 in 10.0 mi South 12.7 mph - N/A   Clear
5:35 PM 46.4 °F 41.1 °F 24.8 °F 43% 30.13 in 10.0 mi South 11.5 mph - N/A   Clear
5:55 PM 46.4 °F 41.1 °F 26.6 °F 46% 30.13 in 10.0 mi South 11.5 mph 17.3 mph N/A   Clear
6:15 PM 44.6 °F 38.4 °F 26.6 °F 49% 30.13 in 10.0 mi SSW 12.7 mph - N/A   Clear
6:35 PM 44.6 °F 39.2 °F 26.6 °F 49% 30.13 in 10.0 mi SSW 10.4 mph - N/A   Clear
6:55 PM 42.8 °F 36.6 °F 30.2 °F 61% 30.13 in 10.0 mi South 11.5 mph - N/A   Clear
7:15 PM 42.8 °F 35.4 °F 30.2 °F 61% 30.12 in 10.0 mi SSW 15.0 mph 18.4 mph N/A   Clear
7:35 PM 44.6 °F 38.4 °F 30.2 °F 57% 30.12 in 10.0 mi SSW 12.7 mph 17.3 mph N/A   Clear
7:55 PM 42.8 °F 35.8 °F 30.2 °F 61% 30.12 in 10.0 mi South 13.8 mph 18.4 mph N/A   Clear
8:15 PM 42.8 °F 36.2 °F 30.2 °F 61% 30.11 in 10.0 mi SSW 12.7 mph 18.4 mph N/A   Clear
8:35 PM 42.8 °F 35.8 °F 30.2 °F 61% 30.10 in 10.0 mi SSW 13.8 mph - N/A   Clear
8:55 PM 42.8 °F 35.4 °F 30.2 °F 61% 30.10 in 10.0 mi SSW 15.0 mph 20.7 mph N/A   Clear
9:15 PM 42.8 °F 35.8 °F 30.2 °F 61% 30.09 in 10.0 mi SSW 13.8 mph 19.6 mph N/A   Clear
9:35 PM 42.8 °F 35.1 °F 30.2 °F 61% 30.08 in 10.0 mi SSW 16.1 mph 24.2 mph N/A   Clear
9:55 PM 44.6 °F 37.2 °F 30.2 °F 57% 30.07 in 10.0 mi SSW 17.3 mph 24.2 mph N/A   Clear
10:15 PM 44.6 °F 36.9 °F 28.4 °F 53% 30.07 in 10.0 mi SSW 18.4 mph 24.2 mph N/A   Clear
10:35 PM 44.6 °F 37.2 °F 28.4 °F 53% 30.06 in 10.0 mi SSW 17.3 mph 27.6 mph N/A   Clear
10:55 PM 44.6 °F 37.2 °F 28.4 °F 53% 30.05 in 10.0 mi SSW 17.3 mph 23.0 mph N/A   Clear
11:15 PM 42.8 °F 34.3 °F 28.4 °F 57% 30.04 in 10.0 mi SW 19.6 mph 27.6 mph N/A   Clear
11:35 PM 42.8 °F 34.8 °F 28.4 °F 57% 30.03 in 10.0 mi SSW 17.3 mph 21.9 mph N/A   Clear
11:55 PM 42.8 °F 34.8 °F 28.4 °F 57% 30.01 in 10.0 mi SW 17.3 mph 24.2 mph N/A   Clear